TimeEST,TemperatureF,Dew PointF,Humidity,Sea Level PressureIn,VisibilityMPH,Wind Direction,Wind SpeedMPH,Gust SpeedMPH,PrecipitationIn,Events,Conditions,WindDirDegrees,DateUTC
12:52 AM,24.1,19.9,84,30.50,10.0,Calm,Calm,-,N/A,,Clear,0,2012-11-15 05:52:00
1:52 AM,23.0,19.9,88,30.49,10.0,Calm,Calm,-,N/A,,Clear,0,2012-11-15 06:52:00
2:52 AM,23.0,19.0,85,30.51,10.0,Calm,Calm,-,N/A,,Clear,0,2012-11-15 07:52:00
3:52 AM,23.0,19.9,88,30.49,10.0,Calm,Calm,-,N/A,,Clear,0,2012-11-15 08:52:00
4:52 AM,24.1,19.9,84,30.48,10.0,Calm,Calm,-,N/A,,Clear,0,2012-11-15 09:52:00
5:52 AM,21.9,19.0,89,30.50,10.0,Calm,Calm,-,N/A,,Clear,0,2012-11-15 10:52:00
6:52 AM,21.9,19.0,89,30.51,10.0,Calm,Calm,-,N/A,,Clear,0,2012-11-15 11:52:00
7:52 AM,25.0,21.0,85,30.51,10.0,Calm,Calm,-,N/A,,Clear,0,2012-11-15 12:52:00
8:52 AM,30.0,23.0,75,30.49,10.0,Variable,3.5,-,N/A,,Clear,0,2012-11-15 13:52:00
9:52 AM,34.0,23.0,64,30.47,10.0,North,8.1,-,N/A,,Clear,350,2012-11-15 14:52:00
10:52 AM,37.0,23.0,57,30.45,10.0,Variable,3.5,-,N/A,,Clear,0,2012-11-15 15:52:00
11:52 AM,37.9,21.9,53,30.42,10.0,Variable,3.5,-,N/A,,Clear,0,2012-11-15 16:52:00
12:52 PM,41.0,21.9,47,30.39,10.0,North,4.6,-,N/A,,Clear,360,2012-11-15 17:52:00
1:52 PM,41.0,19.9,43,30.37,10.0,Variable,4.6,-,N/A,,Clear,0,2012-11-15 18:52:00
2:52 PM,39.9,21.0,47,30.38,10.0,Calm,Calm,-,N/A,,Clear,0,2012-11-15 19:52:00
3:52 PM,36.0,24.1,62,30.38,10.0,Calm,Calm,-,N/A,,Clear,0,2012-11-15 20:52:00
4:52 PM,34.0,24.1,67,30.37,10.0,Calm,Calm,-,N/A,,Clear,0,2012-11-15 21:52:00
5:52 PM,32.0,25.0,75,30.37,10.0,Calm,Calm,-,N/A,,Clear,0,2012-11-15 22:52:00
6:52 PM,30.9,24.1,76,30.38,10.0,Calm,Calm,-,N/A,,Clear,0,2012-11-15 23:52:00
7:52 PM,30.0,25.0,82,30.37,10.0,Calm,Calm,-,N/A,,Clear,0,2012-11-16 00:52:00
8:52 PM,28.9,25.0,85,30.37,10.0,Calm,Calm,-,N/A,,Clear,0,2012-11-16 01:52:00
9:52 PM,28.9,25.0,85,30.35,10.0,Calm,Calm,-,N/A,,Clear,0,2012-11-16 02:52:00
10:52 PM,28.0,24.1,85,30.34,10.0,Calm,Calm,-,N/A,,Clear,0,2012-11-16 03:52:00
11:52 PM,27.0,24.1,89,30.33,10.0,Calm,Calm,-,N/A,,Clear,0,2012-11-16 04:52:00